Location: Foligno
(42.9600°N, 12.7050°E)
Time: 06:03:21
(UTC+02:00)

ISS - Pass Details

Date: 23 May 2018
Orbit: 402 x 407 km, 51.6° (Epoch: 24 May)

Event Time Altitude Azimuth Distance (km) Brightness Sun altitude
Rises 00:36:16 0° 293° (WNW) 2,319 0.4 -26.2°
Reaches altitude 10° 00:38:50 10° 314° (NW) 1,459 -0.4 -26.2°
Maximum altitude 00:41:08 17° 359° (N) 1,091 -0.8 -26.3°
Drops below altitude 10° 00:43:25 10° 44° (NE) 1,458 -0.5 -26.3°
Sets 00:45:59 0° 65° (ENE) 2,317 0.3 -26.4°
